COSMOS 2251 DEB

Satellite information

Favourite Embed

Satellite Type and Status

DEBRISIN ORBIT

Key statistics

Satellite COSMOS 2251 DEB at a glance.

Uptime

11709

Days in orbit

Revolutions

≈ 14.0

Per day

Orbit

LEO

Low Earth Orbit

Inclination

73.8

Latest

Satellite identification and parameters

Extended collection of information and parameters for COSMOS 2251 DEB.

Object identification

Identified? True

Debris? True

Object name: COSMOS 2251 DEB

International designator: 1993-036BFR

Object number (NORAD): 37095

Object ID (CCSDS): 37095

Country: COMMONWEALTH OF INDEPENDENT STATES (CIS)

Current information (Y/N): Y

RCS size: SMALL

Orbital parameters

Period: 102.676 minutes

Inclination: 73.8448 deg

SMA: 7263.414 km

Apoapsis: 1030.349 km

Periapsis: 740.21 km

RAAN: 114.4023 deg

Eccentricy: 0.0199726

Argument of periapsis: 201.4828 deg

Mean anomaly: 157.784 deg

Mean motion: 14.02463374 rev/day

Mean motion (dot): 0.00001244 rev/day2

B* drag term: 0.00069301 1/REarth

Two-line elements (TLE)

Creation date: July 4, 2025, 6:39 p.m.

Reference frame: TEME

Reference center: EARTH

Epoch: July 4, 2025, 2:19 a.m. UTC

TLE line 0: 0 COSMOS 2251 DEB

TLE line 1: 1 37095U 93036BFR 25185.09689525 .00001244 00000-0 69301-3 0 9993

TLE line 2: 2 37095 73.8448 114.4023 0199726 201.4828 157.7840 14.02463374603694

Live tracking on map

Real-time ground track for satellite COSMOS 2251 DEB.

In-orbit conjunctions

A list of the most updated potential collisions computed for object COSMOS 2251 DEB.

Target Orbit TCA Probability of collision Miss distance Type
COSMOS 2208 LEO 2024-10-28 06:44:02 0.0002372406 246.0 (m) PAYLOAD
CZ-6A DEB LEO 2024-09-27 11:28:54 0.0003340208 85.0 (m) DEBRIS
NADEZHDA 7 LEO 2024-09-14 14:08:50 0.00158889 63.0 (m) PAYLOAD
COSMOS 1809 LEO 2024-09-07 02:41:15 0.0003170453 231.0 (m) PAYLOAD

Associated space launch

Military communications satellite. Destroyed in a collision with Iridium 33.

COSMOS 2251 DEB was lifted into orbit during the mission ‘Kosmos-3M | Strela-2M 51’, on board a Kosmos-3M space rocket.

The launch took place on June 16, 1993, 4:17 a.m. from 132/1 (132L).

For more information about the launch, click the button.

Launch to space Kosmos-3M | Strela-2M 51
Kosmos-3M | Strela-2M 51

Agency: N/A

Status: Launch Successful

Launch date: June 16, 1993, 4:17 a.m. UTC

Rocket: Kosmos-3M

Launch pad: 132/1 (132L)

Location: Plesetsk Cosmodrome, Russian Federation

...

Latest news about this satellite

There are no fresh news available about this satellite. Check back as we update our databases every day.


Newsletter sign-up

Weekly statistics, charts and insights to help you stay on top of the space industry.